This is the latest recevied weather packets stored in our database for station/object KM5R. If no packets are shown the sender has not sent any weather packets the latest 10 day(s).
| Time | Temp. | Humidity | Pressure | Rain* | Wind** | Luminosity | Snow |
|---|---|---|---|---|---|---|---|
| 1777576195 | 15.56° C | 91% | 1014.7 hPa | 0 mm | - | 57 W/m² | - |
| 1777574676 | 16.11° C | 90% | 1013.9 hPa | 0 mm | - | 75 W/m² | - |
| 1777574372 | 16.11° C | 91% | 1014 hPa | 0 mm | - | 78 W/m² | - |
| 1777574067 | 16.11° C | 90% | 1014.6 hPa | 0 mm | - | 61 W/m² | - |
| 1777573763 | 16.11° C | 90% | 1015.1 hPa | 0 mm | - | 53 W/m² | - |
| 1777572852 | 16.11° C | 90% | 1014.6 hPa | 0 mm | - | 48 W/m² | - |
| 1777571939 | 15.56° C | 90% | 1014 hPa | 1.27 mm | - | 75 W/m² | - |
| 1777571639 | 15.56° C | 90% | 1014.5 hPa | 1.27 mm | - | 39 W/m² | - |
| 1777570729 | 15.56° C | 90% | 1014.1 hPa | 0 mm | - | 51 W/m² | - |
| 1777570121 | 15.56° C | 90% | 1013.9 hPa | 1.78 mm | - | 96 W/m² | - |
| 1777569513 | 15.56° C | 90% | 1014.1 hPa | 0 mm | - | 67 W/m² | - |
| 1777567089 | 15.56° C | 90% | 1015.1 hPa | 0 mm | - | 103 W/m² | - |
| 1777566181 | 15.56° C | 90% | 1015.1 hPa | 4.32 mm | - | 35 W/m² | - |
| 1777565573 | 15° C | 90% | 1016.8 hPa | 7.87 mm | - | 26 W/m² | - |
| 1777564966 | 15° C | 90% | 1016.8 hPa | 7.87 mm | - | 17 W/m² | - |
| 1777562842 | 15.56° C | 89% | 1016.5 hPa | 4.32 mm | - | 27 W/m² | - |
| 1777559511 | 15.56° C | 89% | 1017 hPa | 1.27 mm | - | 29 W/m² | - |
| 1777559209 | 15.56° C | 89% | 1016.8 hPa | 1.78 mm | - | 36 W/m² | - |
| 1777558300 | 15.56° C | 89% | 1016.7 hPa | 0 mm | - | 39 W/m² | - |
| 1777556782 | 15° C | 89% | 1015.4 hPa | 0 mm | - | 10 W/m² | - |
| 1777556178 | 15° C | 89% | 1014.7 hPa | 0 mm | - | 16 W/m² | - |
| 1777555874 | 15° C | 89% | 1015.3 hPa | 0 mm | - | 15 W/m² | - |
| 1777555570 | 15° C | 89% | 1015 hPa | 0 mm | - | 16 W/m² | - |
| 1777555267 | 15° C | 88% | 1014.5 hPa | 0 mm | - | 28 W/m² | - |
| 1777554964 | 15° C | 88% | 1014.2 hPa | 0 mm | - | 39 W/m² | - |
* Rain latest hour (hover to see other rain measurements)
** Current wind speed in m/s (hover to see current wind gust speed)